Track STARLINK-2601 now! 10-day predictions STARLINK-2601 is classified as:
1 48384U 21038AH 22187.18771909 .00003807 00000-0 27444-3 0 9995 2 48384 53.0545 258.3538 0001635 59.9752 300.1399 15.06388796 65400